[[{"header":{"parameterUnit":"m.s-1","parameterCategory":1,"la1":30.2991,"la2":30.254,"lo1":-89.0895,"lo2":-89.0444,"dy":0.0017,"dx":0.0017,"nx":28,"ny":28,"refTime":"2025-11-05T09:00:00:Z","depth":0,"parameterNumber":2,"parameterNumberName":"U-component_of_WINDS"},"data":[0,0,0,0,0,0,0,0,0,0,0,0,0,0,0,0,0,0,0,0,0,0,0,0,0,0,0,0,0,0,0,0,0,0,0,0,0,0,0,0,0,0,0,0,0,0,0,0,0,0,0,0,0,0,0,0,0,0,-0.7208,-0.7208,0,-0.7207,-0.7207,-0.7207,-0.713,-0.7128,-0.7126,-0.7124,-0.7126,-0.7127,-0.7129,0,0,0,0,0,0,0,0,0,0,0,0,0,-0.7145,-0.7147,-0.7208,-0.7208,-0.7208,-0.7207,-0.7207,-0.7207,-0.713,-0.7128,-0.7125,-0.7123,-0.7125,-0.7127,-0.713,0,0,0,0,0,0,0,0,0,0,0,0,0,-0.7162,-0.7147,-0.7208,-0.7169,-0.7166,-0.7207,-0.7207,-0.7207,-0.7131,-0.7128,-0.7125,-0.7122,-0.7124,-0.7127,-0.713,-0.7209,0,0,-0.7139,-0.714,0,0,0,0,0,0,0,0,-0.7161,-0.7164,-0.7175,-0.7172,-0.7168,-0.7165,-0.7186,-0.7208,-0.7132,-0.7144,-0.7124,-0.712,-0.7141,-0.7143,-0.7149,-0.7209,-0.7209,-0.7139,-0.7141,-0.7142,-0.7143,0,0,0,0,0,0,0,-0.716,-0.7164,-0.7208,-0.7175,-0.7171,-0.7153,-0.7152,-0.7189,-0.716,-0.7143,-0.7137,-0.7138,-0.7139,-0.7147,-0.7149,-0.7209,-0.7139,-0.7141,-0.7143,-0.7144,-0.7334,-0.7337,0,0,0,0,0,0,-0.7164,-0.7163,-0.7208,-0.7208,-0.7157,-0.7157,-0.7155,-0.717,-0.7159,-0.7155,-0.7141,-0.7135,-0.7143,-0.7146,-0.7149,-0.7242,-0.7142,-0.7145,-0.7146,-0.7331,-0.7335,-0.7339,0,0,0,0,0,0,-0.7162,-0.7168,-0.7208,-0.7184,-0.7187,-0.7161,-0.7177,-0.7171,-0.7179,-0.7158,-0.7152,-0.7154,-0.7141,-0.7145,-0.7194,-0.7241,-0.7146,-0.7149,-0.7327,-0.7332,-0.7337,-0.7428,0,0,0,0,0,0,-0.7161,-0.7168,-0.7198,-0.7185,-0.7189,-0.7253,-0.718,-0.7173,-0.7184,-0.7176,-0.7169,-0.7165,-0.7139,-0.7191,-0.7197,-0.7243,-0.7151,-0.7323,-0.7329,-0.7335,-0.7421,-0.7436,-0.7449,0,0,0,0,0,-0.7159,-0.7223,-0.7199,-0.7205,-0.7225,-0.7256,-0.7259,-0.7227,-0.7188,-0.7217,-0.7204,-0.7165,-0.7234,-0.7196,-0.7203,-0.7251,-0.732,-0.7328,-0.7335,-0.7415,-0.7433,-0.7448,0,0,0,0,0,0,-0.7243,-0.7221,-0.7194,-0.7256,-0.7259,-0.7243,-0.728,-0.7247,-0.7261,-0.7253,-0.7213,-0.7213,-0.7269,-0.7264,-0.7223,-0.7327,-0.727,-0.7279,-0.7329,-0.7346,-0.7359,-0.7361,-0.7153,0,0,0,0,0,-0.7268,-0.7295,-0.7274,-0.7331,-0.7334,-0.7307,-0.7319,-0.7294,-0.7296,-0.7296,-0.7286,-0.729,-0.7312,-0.7328,-0.7347,-0.7419,-0.7418,-0.7455,-0.7469,-0.748,-0.749,-0.7529,-0.7546,-0.7363,-0.7363,-0.7363,0,0,-0.7322,-0.7313,-0.7332,-0.7348,-0.7347,-0.7377,-0.7308,-0.7342,-0.7364,-0.7302,-0.7349,-0.7342,-0.7343,-0.7404,-0.7431,-0.7402,-0.7539,-0.7489,-0.7499,-0.7502,-0.7538,-0.7556,-0.7571,-0.7368,-0.7367,-0.7366,0,0,-0.7435,-0.743,-0.7478,-0.7478,-0.7477,-0.7458,-0.747,-0.7459,-0.7452,-0.7498,-0.7453,-0.7478,-0.7517,-0.7521,-0.7528,-0.7642,-0.7607,-0.7649,-0.7722,-0.7761,-0.7775,-0.7788,-0.7831,-0.7847,-0.7658,-0.7658,-0.7658,0,-0.7502,-0.7544,-0.7507,-0.7544,-0.7553,-0.7497,-0.7546,-0.7548,-0.7554,-0.7562,-0.7529,-0.7577,-0.7574,-0.7637,-0.7665,-0.7671,-0.7685,-0.7651,-0.7776,-0.7788,-0.7799,-0.7841,-0.7857,-0.7663,-0.7663,-0.7662,-0.7662,0,-0.7628,-0.7658,-0.7696,-0.7703,-0.7716,-0.7759,-0.7729,-0.7747,-0.7721,-0.7706,-0.7755,-0.7749,-0.7767,-0.7779,-0.7754,-0.7839,-0.7821,-0.7782,-0.7725,-0.7823,-0.7861,-0.7876,-0.7671,-0.7669,-0.7667,-0.7666,0,0,-0.7796,-0.7781,-0.7796,-0.7799,-0.7794,-0.7817,-0.7857,-0.7874,-0.7891,-0.7896,-0.7931,-0.7965,-0.793,-0.7938,-0.7912,-0.7946,-0.804,-0.7903,-0.7903,-0.7932,-0.8136,-0.8168,-0.8186,-0.8016,-0.8019,-0.8021,-0.8137,0,-0.7907,-0.7976,-0.7944,-0.8017,-0.8045,-0.7992,-0.8027,-0.8029,-0.8016,-0.8038,-0.8024,-0.805,-0.7999,-0.8004,-0.8035,-0.8022,-0.8081,-0.8013,-0.805,-0.8052,-0.8055,-0.8206,-0.8239,-0.8349,-0.8151,-0.8154,-0.8156,0,-0.8047,-0.8059,-0.8135,-0.8125,-0.8136,-0.8169,-0.8182,-0.8204,-0.8204,-0.8193,-0.8201,-0.8168,-0.8209,-0.8149,-0.8206,-0.816,-0.8173,-0.8169,-0.8172,-0.8177,-0.8112,-0.8218,-0.8383,-0.8401,-0.8178,-0.8176,-0.8175,0,-0.8166,-0.82,-0.825,-0.8254,-0.8243,-0.8268,-0.8265,-0.8262,-0.8275,-0.8287,-0.8295,-0.8311,-0.8321,-0.8335,-0.8308,-0.8266,-0.8369,-0.8306,-0.8362,-0.8363,-0.8389,-0.8388,-0.8562,-0.8392,-0.8392,-0.8391,-0.8391,0,-0.8296,-0.8346,-0.8304,-0.8335,-0.8389,-0.8351,-0.8406,-0.8397,-0.8395,-0.8424,-0.8378,-0.8407,-0.8368,-0.8393,-0.8371,-0.8423,-0.8427,-0.842,-0.8414,-0.8426,-0.8428,-0.8436,-0.8429,-0.8396,-0.8395,-0.8394,-0.8393,0,-0.8439,-0.8413,-0.8465,-0.845,-0.8447,-0.8488,-0.8476,-0.8505,-0.8488,-0.8527,-0.8533,-0.8508,-0.8535,-0.8508,-0.8534,-0.852,-0.8589,-0.8571,-0.859,-0.8586,-0.8644,-0.8641,-0.8832,-0.8857,-0.8668,-0.867,-0.8672,0,-0.8526,-0.8562,-0.8552,-0.8568,-0.8568,-0.8594,-0.8607,-0.857,-0.8586,-0.8589,-0.8619,-0.8642,-0.8659,-0.8705,-0.869,-0.871,-0.8693,-0.8759,-0.8696,-0.8707,-0.8698,-0.8698,-0.8702,-0.8773,-0.8775,-0.8777,-0.8779,0,-0.8683,-0.8668,-0.8688,-0.8703,-0.872,-0.873,-0.8737,-0.8754,-0.8716,-0.8736,-0.8763,-0.8776,-0.8803,-0.8827,-0.8842,-0.884,-0.8805,-0.8798,-0.8813,-0.8827,-0.8837,-0.8835,-0.8628,-0.8795,-0.8793,-0.8792,-0.8791,-0.879,-0.8802,-0.8833,-0.8831,-0.8855,-0.8856,-0.8864,-0.8891,-0.8877,-0.8899,-0.8918,-0.8895,-0.8929,-0.8929,-0.8946,-0.8947,-0.8975,-0.8947,-0.8967,-0.8973,-0.898,-0.899,-0.883,-0.8977,-0.8976,-0.8976,-0.8975,-0.8975,0,-0.8959,-0.8955,-0.8977,-0.8989,-0.9008,-0.8971,-0.8977,-0.8996,-0.9027,-0.9029,-0.9047,-0.9079,-0.9103,-0.9089,-0.9109,-0.9134,-0.9118,-0.9141,-0.914,-0.9141,-0.9012,-0.8998,-0.9153,-0.9153,-0.9153,-0.9153,-0.9153,-0.9153,-0.9044,-0.9095,-0.908,-0.9132,-0.9127,-0.916,-0.9167,-0.9175,-0.9177,-0.9215,-0.9234,-0.9224,-0.9221,-0.9241,-0.9261,-0.9256,-0.9268,-0.9297,-0.9287,-0.9167,-0.915,-0.9133,-0.9121,-0.9299,-0.9299,-0.9414,-0.9415,-0.9416]},{"header":{"parameterUnit":"m.s-1","parameterCategory":1,"la1":30.2991,"la2":30.254,"lo1":-89.0895,"lo2":-89.0444,"dy":0.0017,"dx":0.0017,"nx":28,"ny":28,"refTime":"2025-11-05T09:00:00:Z","depth":0,"parameterNumber":3,"parameterNumberName":"V-component_of_WINDS"},"data":[0,0,0,0,0,0,0,0,0,0,0,0,0,0,0,0,0,0,0,0,0,0,0,0,0,0,0,0,0,0,0,0,0,0,0,0,0,0,0,0,0,0,0,0,0,0,0,0,0,0,0,0,0,0,0,0,0,0,-1.8442,-1.8443,0,-1.8489,-1.849,-1.849,-1.85,-1.85,-1.8499,-1.8499,-1.8545,-1.8546,-1.8548,0,0,0,0,0,0,0,0,0,0,0,0,0,-1.8359,-1.836,-1.8442,-1.8443,-1.8443,-1.8489,-1.849,-1.849,-1.85,-1.85,-1.8499,-1.8499,-1.8544,-1.8546,-1.8548,0,0,0,0,0,0,0,0,0,0,0,0,0,-1.8399,-1.8361,-1.8442,-1.8454,-1.8455,-1.8489,-1.849,-1.849,-1.85,-1.85,-1.8499,-1.8499,-1.8544,-1.8546,-1.8548,-1.8573,0,0,-1.8555,-1.8556,0,0,0,0,0,0,0,0,-1.8397,-1.8402,-1.8451,-1.8453,-1.8455,-1.8488,-1.8477,-1.8518,-1.85,-1.8483,-1.8499,-1.8498,-1.8526,-1.853,-1.854,-1.8575,-1.8577,-1.8556,-1.8557,-1.8558,-1.8559,0,0,0,0,0,0,0,-1.8394,-1.84,-1.8461,-1.8452,-1.8454,-1.8456,-1.8461,-1.8485,-1.8507,-1.8485,-1.8485,-1.8491,-1.8527,-1.8538,-1.8541,-1.8578,-1.8556,-1.8558,-1.8559,-1.856,-1.8634,-1.8635,0,0,0,0,0,0,-1.8389,-1.8398,-1.8459,-1.8462,-1.8424,-1.8458,-1.8464,-1.8478,-1.8507,-1.8511,-1.8491,-1.8491,-1.8534,-1.8538,-1.8543,-1.8573,-1.8558,-1.856,-1.8561,-1.8634,-1.8634,-1.8635,0,0,0,0,0,0,-1.8388,-1.8395,-1.8457,-1.843,-1.8438,-1.846,-1.8476,-1.8479,-1.849,-1.8512,-1.8516,-1.8498,-1.8534,-1.8539,-1.8565,-1.8574,-1.8561,-1.8563,-1.8633,-1.8634,-1.8635,-1.8633,0,0,0,0,0,0,-1.8385,-1.8394,-1.8404,-1.843,-1.844,-1.848,-1.8476,-1.848,-1.8494,-1.8494,-1.8519,-1.8523,-1.8534,-1.8562,-1.8568,-1.8577,-1.8565,-1.8632,-1.8633,-1.8635,-1.8633,-1.8634,-1.8635,0,0,0,0,0,-1.8382,-1.8402,-1.8405,-1.8412,-1.8453,-1.848,-1.8486,-1.8498,-1.8495,-1.8505,-1.8519,-1.8522,-1.8573,-1.8564,-1.8571,-1.8582,-1.8632,-1.8633,-1.8634,-1.8632,-1.8634,-1.8635,0,0,0,0,0,0,-1.8375,-1.8405,-1.8409,-1.8438,-1.8457,-1.8482,-1.8495,-1.85,-1.8519,-1.8519,-1.8533,-1.8539,-1.8563,-1.8575,-1.8565,-1.8606,-1.8602,-1.8605,-1.8598,-1.86,-1.8601,-1.8597,-1.8567,0,0,0,0,0,-1.8378,-1.8398,-1.8423,-1.8446,-1.8455,-1.8473,-1.8486,-1.8494,-1.8513,-1.8521,-1.8537,-1.8556,-1.8576,-1.8588,-1.8608,-1.8635,-1.864,-1.8645,-1.8646,-1.8647,-1.8649,-1.8663,-1.8666,-1.8639,-1.8639,-1.8639,0,0,-1.8382,-1.84,-1.8412,-1.8445,-1.846,-1.848,-1.848,-1.8501,-1.8516,-1.8524,-1.855,-1.8562,-1.8583,-1.8609,-1.8622,-1.862,-1.8658,-1.8649,-1.865,-1.8651,-1.8665,-1.8668,-1.867,-1.864,-1.864,-1.864,0,0,-1.8399,-1.8416,-1.8437,-1.8452,-1.8476,-1.8488,-1.8493,-1.8517,-1.8526,-1.8552,-1.8558,-1.8576,-1.861,-1.8625,-1.8637,-1.866,-1.8663,-1.8665,-1.8672,-1.8686,-1.8688,-1.869,-1.8697,-1.87,-1.8667,-1.8667,-1.8667,0,-1.8401,-1.8432,-1.8446,-1.8467,-1.8481,-1.849,-1.851,-1.8525,-1.8553,-1.8562,-1.856,-1.8603,-1.8618,-1.8647,-1.8653,-1.8662,-1.8668,-1.8662,-1.8687,-1.8689,-1.8691,-1.8698,-1.8701,-1.8668,-1.8668,-1.8668,-1.8668,0,-1.8433,-1.8454,-1.8468,-1.8496,-1.8511,-1.8532,-1.8548,-1.8562,-1.8568,-1.858,-1.8606,-1.8624,-1.8648,-1.8655,-1.8662,-1.8685,-1.8684,-1.8684,-1.8679,-1.8693,-1.87,-1.8703,-1.8668,-1.8668,-1.8668,-1.8668,0,0,-1.8448,-1.8483,-1.8488,-1.85,-1.8527,-1.8543,-1.8564,-1.8587,-1.8598,-1.8617,-1.8634,-1.8663,-1.8663,-1.8677,-1.8685,-1.8697,-1.8713,-1.8696,-1.8697,-1.8698,-1.8739,-1.8738,-1.8741,-1.8716,-1.8716,-1.8717,-1.8737,0,-1.8468,-1.8506,-1.8519,-1.855,-1.8569,-1.8578,-1.8596,-1.8613,-1.8625,-1.8643,-1.8655,-1.8675,-1.8675,-1.8683,-1.8695,-1.8709,-1.8721,-1.8707,-1.8731,-1.8732,-1.8725,-1.8745,-1.8745,-1.8763,-1.874,-1.8741,-1.8741,0,-1.8497,-1.8517,-1.855,-1.8574,-1.8582,-1.8598,-1.862,-1.8637,-1.8657,-1.8665,-1.868,-1.8687,-1.8708,-1.8703,-1.8731,-1.8721,-1.8732,-1.874,-1.8741,-1.8743,-1.8737,-1.8747,-1.8769,-1.8772,-1.8745,-1.8745,-1.8745,0,-1.8503,-1.8539,-1.8563,-1.8573,-1.8602,-1.8612,-1.8625,-1.8644,-1.8657,-1.8676,-1.8685,-1.8706,-1.8717,-1.8733,-1.8745,-1.874,-1.8772,-1.8768,-1.8778,-1.8778,-1.8784,-1.8784,-1.8807,-1.8792,-1.8792,-1.8792,-1.8792,0,-1.8524,-1.8544,-1.8566,-1.8581,-1.8603,-1.8617,-1.8638,-1.8651,-1.8668,-1.8685,-1.8694,-1.8709,-1.8725,-1.8742,-1.8752,-1.8774,-1.8779,-1.8785,-1.8787,-1.8784,-1.8783,-1.879,-1.8789,-1.8793,-1.8792,-1.8792,-1.8792,0,-1.8535,-1.8551,-1.8578,-1.8603,-1.8609,-1.8624,-1.8645,-1.8659,-1.8671,-1.8692,-1.8698,-1.8716,-1.8737,-1.8751,-1.8778,-1.8784,-1.8807,-1.881,-1.8801,-1.8802,-1.8811,-1.881,-1.884,-1.8844,-1.8826,-1.8826,-1.8827,0,-1.8548,-1.8563,-1.8589,-1.8601,-1.8614,-1.8633,-1.8647,-1.8661,-1.8674,-1.8698,-1.8709,-1.873,-1.8748,-1.8781,-1.8796,-1.8816,-1.8819,-1.8828,-1.8822,-1.8818,-1.8818,-1.8817,-1.8818,-1.8829,-1.8829,-1.8829,-1.8829,0,-1.8567,-1.8574,-1.8594,-1.8615,-1.8631,-1.8649,-1.8667,-1.8676,-1.8693,-1.8708,-1.8729,-1.8743,-1.877,-1.8791,-1.8812,-1.8824,-1.8829,-1.8831,-1.8834,-1.8831,-1.8825,-1.8827,-1.8803,-1.883,-1.883,-1.883,-1.883,-1.883,-1.8579,-1.8593,-1.8613,-1.8634,-1.8649,-1.8666,-1.868,-1.8694,-1.8712,-1.8736,-1.8743,-1.8765,-1.8784,-1.8813,-1.8825,-1.8842,-1.8841,-1.8846,-1.8847,-1.8848,-1.8848,-1.8822,-1.8846,-1.8846,-1.8846,-1.8846,-1.8846,0,-1.8599,-1.8612,-1.8632,-1.8656,-1.8672,-1.8677,-1.8696,-1.8709,-1.8729,-1.8746,-1.8764,-1.8788,-1.8808,-1.8825,-1.8846,-1.8856,-1.8859,-1.8861,-1.886,-1.8862,-1.8848,-1.8843,-1.8858,-1.8858,-1.8858,-1.8858,-1.8858,-1.8858,-1.8611,-1.8634,-1.8644,-1.8674,-1.8687,-1.871,-1.872,-1.8735,-1.8749,-1.8776,-1.8793,-1.8804,-1.8821,-1.8843,-1.8861,-1.8865,-1.8872,-1.8874,-1.8879,-1.8865,-1.8863,-1.8862,-1.8857,-1.8875,-1.8875,-1.8891,-1.8892,-1.8892]}]]